Regional Weather Roundup
Issued by NWS

Home | Current Version | Previous Version | Text Only | Print | Product List | Glossary On
Versions: 1 2 3 4 5 6 7 8 9 10 11 12 13 14 15 16 17 18 19 20 21 22 23 24 25 26 27
000
ASUS44 KBMX 251710
RWRAL

ALABAMA REGIONAL WEATHER ROUNDUP
NATIONAL WEATHER SERVICE BIRMINGHAM AL
1200 PM CDT SUN JUN 25 2017

NOTE: "FAIR" INDICATES FEW OR NO CLOUDS BELOW 12,000 FEET
WITH NO SIGNIFICANT WEATHER AND/OR OBSTRUCTIONS TO VISIBILITY.

THE REMARK "TC" DENOTES TEMPERATURE IN DEGREES CELSIUS.

ALZ001>011-014-016>018-020-251800-
NORTH ALABAMA

CITY           SKY/WX    TMP DP  RH WIND       PRES   REMARKS
MUSCLE SHOALS  MOSUNNY   80  51  36 N8        30.24F
HUNTSVILLE     PTSUNNY   75  57  53 NE10      30.23R
DECATUR        MOSUNNY   75  57  53 NE7       30.23S
HALEYVILLE     NOT AVBL
GADSDEN        MOSUNNY   71  61  70 N7        30.23R
$$

ALZ012-013-022-023-030>036-040>044-251800-
WEST CENTRAL ALABAMA

CITY           SKY/WX    TMP DP  RH WIND       PRES   REMARKS
TUSCALOOSA     CLOUDY    80  62  54 N12       30.22R
$$

ALZ015-024>027-033>036-040>044-251800-
CENTRAL ALABAMA

CITY           SKY/WX    TMP DP  RH WIND       PRES   REMARKS
BIRMINGHAM     PTSUNNY   77  60  55 N10       30.24R
MONTGOMERY     PTSUNNY   83  65  54 N9        30.17F
SHELBY CO ARPT CLOUDY    77  63  61 N7        30.21S
MAXWELL AFB    PTSUNNY   80  66  62 NE3       30.17S
GREENVILLE     FAIR      85  65  51 NE8       30.16S
$$

ALZ019-021-028-029-037-038-045>048-251800-
EAST CENTRAL ALABAMA

CITY           SKY/WX    TMP DP  RH WIND       PRES   REMARKS
ANNISTON       CLOUDY    78  62  57 N8        30.20F
ALEXANDER CITY CLOUDY    73  64  72 N6        30.20S
AUBURN         CLOUDY    77  65  66 N7        30.19R
$$

ALZ051>064-251800-
SOUTHWEST ALABAMA

CITY           SKY/WX    TMP DP  RH WIND       PRES   REMARKS
MOBILE         PTSUNNY   86  72  62 N8        30.16S HX  92
BROOKLEY FIELD MOSUNNY   87  75  67 NE9       30.15S HX  96
EVERGREEN      PTSUNNY   84  70  62 NE9       30.16S
$$

ALZ049-050-065>069-251800-
SOUTHEAST ALABAMA

CITY           SKY/WX    TMP DP  RH WIND       PRES   REMARKS
DOTHAN         PTSUNNY   85  76  74 N8        30.16S HX  94
OZARK          MOSUNNY   86  74  66 NW7       30.12F HX  94
TROY           SUNNY     85  68  56 N9        30.16F
EUFAULA        FAIR      85  71  63 VRB5      30.13F HX  90
$$




USA.gov is the U.S. government's official web portal to all federal, state and local government web resources and services.